星链-1532 (STARLINK-1532 )

导读 | 豆包AI

STARLINK-1532是美国太空探索技术公司(SpaceX)星链(Starlink)卫星互联网项目的卫星,于2020年8月7日发射升空。它属于星链低轨卫星组网的组成部分,旨在为全球提供高速低延迟互联网服务,目前在轨运行,持续参与星链星座的网络服务建设。

Basic Information
目录编号:
46068
目录名称:
STARLINK-1532
国际标识:
2020-055AT
轨道中心:
EARTH
卫星名称:
星链-1532
卫星全名:
星链-1532 (STARLINK-1532 )
卫星状态:
已陨落 最后检测时间 2024-08-16
发射日期:
2020-08-07 UTC
国别 :
美国 (US)
星等 :
--
Orbit Information
数据来源 国际轨道数据
星历时间: 2024-08-16T08:48:56+0800
轨道信息已过期622天
半长轴: 6608.034km
偏心率: 0.0008439
轨道倾角: 53.031°
近地点辐角 262.905°
升交点赤经 68.430°
平近点角 185.551°
近地点: 224.322km
远地点: 235.476km
周期: 89.098分钟
每日圈数: 16.161975
Detailed Information
固有亮度:
5
最大亮度:
2.5
卫星平台:
Starlink V1.0
覆盖范围:
全球
运营商:
太空探索技术公司
运营商所在国:
美国
制造商(研发单位):
太空探索技术公司
制造商所在国:
美国
使用方式:
暂无
Satellite Introduction
星链(Starlink)计划是由太空探索技术公司(SpaceX)提出的一个巨型低轨卫星互联网星座项目,计划在2019年至2024年间在太空搭建由约1.2万颗卫星组成的“星链”网络,其中1584颗将部署在地球上空550千米处的近地轨道,并从2020年开始工作。该卫星仍在工作。